GW2922 Weather Reports


Display with metric or nautical units.
time (UTC)temp
F
wind
direction
speed
MPH
gust
MPH
rain 1hr
in
rain 24hr
in
rain mn
in
humidity
%
barometer
mb
20260902221102 62 130 6.0 19.0 0.00 0.00 0.00 74 1005.2
20260902220557 62 147 13.0 32.0 0.00 0.00 0.00 74 1005.2
20260902220052 62 241 14.0 22.0 0.00 0.00 0.00 75 1005.2
20260902215548 62 218 10.0 18.0 0.00 0.00 0.00 74 1004.9
20260902215043 62 192 9.0 13.0 0.00 0.00 0.00 75 1005.2
20260902214538 63 203 14.0 21.0 0.00 0.00 0.00 74 1005.2
20260902214037 63 151 6.0 18.0 0.00 0.00 0.00 73 1005.2
20260902213533 63 190 1.0 19.0 0.00 0.00 0.00 75 1005.2
20260902213032 63 119 11.0 19.0 0.00 0.00 0.00 75 1005.6
20260902212528 63 131 6.0 11.0 0.00 0.00 0.00 76 1005.2
20260902212024 63 147 12.0 24.0 0.00 0.00 0.00 77 1005.2
20260902211520 64 108 11.0 18.0 0.00 0.00 0.00 75 1005.2
20260902211015 65 117 7.0 13.0 0.00 0.00 0.00 72 1005.6
20260902210514 64 26 6.0 16.0 0.00 0.00 0.00 72 1005.6
20260902210014 64 193 6.0 9.0 0.00 0.00 0.00 72 1005.2
20260902205508 64 104 5.0 14.0 0.00 0.00 0.00 73 1005.2
20260902205004 64 110 6.0 18.0 0.00 0.00 0.00 75 1005.6
20260902204504 64 179 9.0 16.0 0.00 0.00 0.00 74 1005.2
20260902203959 63 98 6.0 15.0 0.00 0.00 0.00 76 1005.6
20260902203454 63 153 10.0 11.0 0.00 0.00 0.00 76 1005.6
20260902202952 63 119 7.0 10.0 0.00 0.00 0.00 77 1005.6
20260902202448 62 178 6.0 14.0 0.00 0.00 0.00 78 1005.9
20260902201945 63 129 14.0 18.0 0.00 0.00 0.00 76 1005.6
20260902201440 64 167 5.0 14.0 0.00 0.00 0.00 75 1005.9
20260902200940 64 211 11.0 17.0 0.00 0.00 0.00 72 1005.9
20260902200435 66 150 12.0 17.0 0.00 0.00 0.00 67 1005.9
20260902195930 66 233 6.0 25.0 0.00 0.00 0.00 66 1005.6
20260902195426 66 156 10.0 24.0 0.00 0.00 0.00 65 1005.6
20260902194920 66 142 9.0 16.0 0.00 0.00 0.00 66 1005.6
20260902194419 66 191 7.0 14.0 0.00 0.00 0.00 67 1005.6
20260902193915 66 172 9.0 16.0 0.00 0.00 0.00 66 1005.6
20260902193411 66 142 5.0 14.0 0.00 0.00 0.00 66 1005.6
20260902192910 66 171 10.0 19.0 0.00 0.00 0.00 67 1005.6
20260902192409 67 151 21.0 26.0 0.00 0.00 0.00 66 1005.6
20260902191908 66 104 9.0 25.0 0.00 0.00 0.00 66 1005.6
20260902191404 64 168 5.0 17.0 0.00 0.00 0.00 69 1005.6
20260902190858 65 188 5.0 21.0 0.00 0.00 0.00 69 1005.6
20260902190353 65 201 9.0 15.0 0.00 0.00 0.00 69 1005.9
20260902185849 63 178 14.0 19.0 0.00 0.00 0.00 71 1005.6
20260902185345 63 175 8.0 18.0 0.00 0.00 0.00 72 1005.9
20260902184840 63 87 8.0 14.0 0.00 0.00 0.00 72 1005.9
20260902184335 62 204 6.0 14.0 0.00 0.00 0.00 74 1006.3
20260902183830 62 132 4.0 13.0 0.00 0.00 0.00 74 1006.3
20260902183327 62 146 5.0 8.0 0.00 0.00 0.00 74 1006.3
20260902182822 62 129 8.0 15.0 0.00 0.00 0.00 74 1006.3
20260902182319 62 147 9.0 18.0 0.00 0.00 0.00 73 1006.3
20260902181815 62 160 11.0 15.0 0.00 0.00 0.00 75 1006.6
20260902181310 62 196 8.0 13.0 0.00 0.00 0.00 75 1006.6
20260902180804 62 153 6.0 14.0 0.00 0.00 0.00 75 1006.6
20260902180300 62 108 4.0 15.0 0.00 0.00 0.00 75 1006.6
20260902175755 62 209 7.0 14.0 0.00 0.00 0.00 75 1006.6
20260902175251 62 182 8.0 11.0 0.00 0.00 0.00 76 1006.9
20260902174746 61 145 6.0 13.0 0.00 0.00 0.00 77 1006.9
20260902174242 61 163 7.0 11.0 0.00 0.00 0.00 77 1006.9
20260902173737 61 161 9.0 14.0 0.00 0.00 0.00 76 1006.6
20260902173237 61 184 4.0 11.0 0.00 0.00 0.00 77 1006.9
20260902172731 61 137 6.0 10.0 0.00 0.00 0.00 77 1006.9
20260902172226 61 179 9.0 11.0 0.00 0.00 0.00 77 1006.9
20260902171721 61 170 11.0 17.0 0.00 0.00 0.00 77 1006.9
20260902171216 61 88 2.0 17.0 0.00 0.00 0.00 77 1006.9
20260902170712 61 86 7.0 17.0 0.00 0.00 0.00 77 1006.9
20260902170208 61 121 8.0 17.0 0.00 0.00 0.00 77 1006.9
20260902165702 61 169 8.0 14.0 0.00 0.00 0.00 76 1006.9
20260902165156 62 124 7.0 17.0 0.00 0.00 0.00 75 1006.9
20260902164652 62 132 4.0 13.0 0.00 0.00 0.00 75 1006.9
20260902164150 62 185 4.0 15.0 0.00 0.00 0.00 76 1006.9
20260902163646 62 193 8.0 13.0 0.00 0.00 0.00 75 1006.9
20260902163145 62 173 5.0 19.0 0.00 0.00 0.00 75 1006.9
20260902162644 62 99 8.0 18.0 0.00 0.00 0.00 75 1006.9
20260902162139 61 139 10.0 15.0 0.00 0.00 0.00 76 1006.9
20260902161634 62 39 7.0 14.0 0.00 0.00 0.00 75 1006.9
20260902161130 62 63 4.0 15.0 0.00 0.00 0.00 75 1006.9
20260902160626 61 126 9.0 13.0 0.00 0.00 0.00 76 1007.3
20260902160120 61 196 10.0 15.0 0.00 0.00 0.00 76 1006.9
20260902155613 62 134 6.0 14.0 0.00 0.00 0.00 75 1007.3
20260902155112 62 106 7.0 22.0 0.00 0.00 0.00 76 1006.9
20260902154607 61 180 11.0 17.0 0.00 0.00 0.00 77 1006.9
20260902154103 61 133 6.0 26.0 0.00 0.00 0.00 77 1006.9
20260902153601 60 171 16.0 32.0 0.00 0.00 0.00 78 1006.6
20260902153057 60 188 5.0 19.0 0.00 0.00 0.00 79 1006.9
20260902152553 60 160 7.0 23.0 0.00 0.00 0.00 79 1006.9
20260902152048 60 167 10.0 18.0 0.00 0.00 0.00 80 1006.9
20260902151544 60 172 10.0 16.0 0.00 0.00 0.00 80 1006.9
20260902151043 60 118 7.0 14.0 0.00 0.00 0.00 81 1007.3
20260902150538 59 191 11.0 14.0 0.00 0.00 0.00 81 1007.3
20260902150034 59 91 5.0 9.0 0.00 0.00 0.00 81 1007.3
20260902145528 59 119 3.0 16.0 0.00 0.00 0.00 82 1007.3
20260902145022 59 118 11.0 21.0 0.00 0.00 0.00 82 1007.6
20260902144519 59 172 5.0 15.0 0.00 0.00 0.00 82 1007.3
20260902144014 59 100 7.0 13.0 0.00 0.00 0.00 81 1007.6
20260902143509 59 201 8.0 17.0 0.00 0.00 0.00 81 1007.3
20260902143005 59 162 4.0 15.0 0.00 0.00 0.00 82 1007.6
20260902142500 59 96 6.0 15.0 0.00 0.00 0.00 83 1007.6
20260902141955 59 164 9.0 11.0 0.00 0.00 0.00 83 1007.6
20260902141449 59 178 2.0 16.0 0.00 0.00 0.00 83 1007.6
20260902140949 58 292 9.0 18.0 0.00 0.00 0.00 83 1007.6
20260902140445 58 181 5.0 17.0 0.00 0.00 0.00 84 1007.6
20260902135939 58 141 5.0 17.0 0.00 0.00 0.00 84 1007.6
20260902135435 58 166 11.0 14.0 0.00 0.00 0.00 84 1007.6
20260902134933 58 195 9.0 13.0 0.00 0.00 0.00 85 1007.9
20260902134430 58 141 5.0 14.0 0.00 0.00 0.00 85 1007.6
20260902133924 58 165 10.0 18.0 0.00 0.00 0.00 85 1007.6
20260902133419 58 148 9.0 23.0 0.00 0.00 0.00 85 1007.6
20260902132914 58 169 13.0 23.0 0.00 0.00 0.00 85 1007.6
20260902132409 58 219 9.0 23.0 0.00 0.00 0.00 84 1007.6
20260902131904 58 142 6.0 11.0 0.00 0.00 0.00 85 1007.6
20260902131401 58 128 8.0 21.0 0.00 0.00 0.00 85 1007.6
20260902130900 58 151 11.0 19.0 0.00 0.00 0.00 85 1007.6
20260902130356 58 97 11.0 18.0 0.00 0.00 0.00 85 1007.3
20260902125850 58 193 3.0 14.0 0.00 0.00 0.00 86 1007.9
20260902125347 58 158 9.0 16.0 0.00 0.00 0.00 86 1007.6
20260902124843 58 159 10.0 15.0 0.00 0.00 0.00 85 1007.6
20260902124339 58 170 9.0 18.0 0.00 0.00 0.00 85 1007.6
20260902123833 58 49 9.0 14.0 0.00 0.00 0.00 85 1007.6
20260902123330 58 165 7.0 10.0 0.00 0.00 0.00 84 1007.6
20260902122828 58 180 8.0 11.0 0.00 0.00 0.00 83 1007.6
20260902122325 58 177 6.0 15.0 0.00 0.00 0.00 82 1007.9
20260902121824 59 182 3.0 8.0 0.00 0.00 0.00 82 1007.9
20260902121319 59 144 4.0 6.0 0.00 0.00 0.00 82 1007.9
20260902120815 58 101 7.0 14.0 0.00 0.00 0.00 82 1007.9
20260902120311 58 155 6.0 13.0 0.00 0.00 0.00 84 1007.6
20260902115805 57 116 5.0 7.0 0.00 0.00 0.00 84 1007.9
20260902115301 58 174 3.0 11.0 0.00 0.00 0.00 84 1007.9
20260902114757 58 121 4.0 8.0 0.00 0.00 0.00 84 1007.9
20260902114253 58 155 6.0 8.0 0.00 0.00 0.00 83 1007.9
20260902113747 58 182 6.0 10.0 0.00 0.00 0.00 82 1007.9
20260902113243 58 83 7.0 10.0 0.00 0.00 0.00 82 1008.3
20260902112742 58 200 6.0 8.0 0.00 0.00 0.00 82 1008.3
20260902112239 58 117 3.0 10.0 0.00 0.00 0.00 82 1008.3
20260902111734 58 164 3.0 10.0 0.00 0.00 0.00 82 1008.6
20260902111231 58 210 4.0 7.0 0.00 0.00 0.00 82 1008.6
20260902110726 58 179 3.0 7.0 0.00 0.00 0.00 82 1008.6
20260902110222 58 151 3.0 9.0 0.00 0.00 0.00 81 1009.0
20260902105721 58 78 4.0 8.0 0.00 0.00 0.00 81 1009.0
20260902105217 58 114 4.0 4.0 0.00 0.00 0.00 82 1008.6
20260902104712 58 160 3.0 9.0 0.00 0.00 0.00 81 1009.0
20260902104208 58 112 1.0 8.0 0.00 0.00 0.00 81 1009.0
20260902103707 59 137 6.0 7.0 0.00 0.00 0.00 81 1009.0
20260902103202 58 163 2.0 6.0 0.00 0.00 0.00 80 1009.0
20260902102658 59 124 6.0 9.0 0.00 0.00 0.00 80 1009.0
20260902102155 59 122 6.0 9.0 0.00 0.00 0.00 80 1009.0
20260902101650 59 151 5.0 7.0 0.00 0.00 0.00 80 1009.0
20260902101150 59 135 3.0 6.0 0.00 0.00 0.00 79 1009.0
20260902100644 59 106 3.0 7.0 0.00 0.00 0.00 78 1009.0
20260902100139 59 133 5.0 7.0 0.00 0.00 0.00 79 1008.6
20260902095638 58 113 2.0 6.0 0.00 0.00 0.00 80 1009.0
20260902095138 58 83 4.0 6.0 0.00 0.00 0.00 81 1009.0
20260902094633 57 134 2.0 3.0 0.00 0.00 0.00 82 1009.0
20260902094129 57 135 0.0 0.0 0.00 0.00 0.00 82 1009.0
20260902093623 57 117 2.0 3.0 0.00 0.00 0.00 82 1009.3
20260902093112 57 106 1.0 3.0 0.00 0.00 0.00 82 1009.3
20260902092607 57 152 2.0 4.0 0.00 0.00 0.00 83 1009.0
20260902092102 57 126 2.0 4.0 0.00 0.00 0.00 84 1009.3
20260902091557 57 135 1.0 3.0 0.00 0.00 0.00 84 1009.3
20260902091053 58 124 2.0 4.0 0.00 0.00 0.00 84 1009.3
20260902090549 58 157 3.0 3.0 0.00 0.00 0.00 84 1009.6
20260902090048 58 174 1.0 2.0 0.00 0.00 0.00 83 1009.6
20260902085548 58 176 2.0 7.0 0.00 0.00 0.00 83 1009.6
20260902085043 58 112 1.0 6.0 0.00 0.00 0.00 83 1009.6
20260902084539 58 118 0.0 3.0 0.00 0.00 0.00 84 1009.6
20260902084034 57 184 3.0 8.0 0.00 0.00 0.00 85 1009.6
20260902083524 57 121 3.0 8.0 0.00 0.00 0.00 88 1010.0
20260902083019 56 184 3.0 6.0 0.00 0.00 0.00 88 1009.6
20260902082515 56 101 1.0 3.0 0.00 0.00 0.00 89 1010.0
20260902082011 56 116 2.0 4.0 0.00 0.00 0.00 89 1010.0
20260902081507 56 118 2.0 4.0 0.00 0.00 0.00 89 1010.0
20260902081001 56 164 2.0 3.0 0.00 0.00 0.00 89 1010.0
20260902080457 57 184 4.0 6.0 0.00 0.00 0.00 89 1010.3
20260902075957 57 184 1.0 4.0 0.00 0.00 0.00 89 1010.0
20260902075453 57 162 1.0 2.0 0.00 0.00 0.00 89 1010.3
20260902074949 57 198 2.0 3.0 0.00 0.00 0.00 89 1010.3
20260902074444 57 133 2.0 2.0 0.00 0.00 0.00 89 1010.3
20260902073938 57 159 3.0 6.0 0.00 0.00 0.00 88 1010.3
20260902073434 57 161 2.0 3.0 0.00 0.00 0.00 88 1010.3
20260902072931 57 153 2.0 7.0 0.00 0.00 0.00 88 1010.3
20260902072426 57 155 4.0 6.0 0.00 0.00 0.00 88 1010.3
20260902071922 57 171 2.0 4.0 0.00 0.00 0.00 88 1010.3
20260902071421 57 130 3.0 3.0 0.00 0.00 0.00 88 1010.3
20260902070918 57 137 2.0 3.0 0.00 0.00 0.00 88 1010.7
20260902070414 57 124 0.0 4.0 0.00 0.00 0.00 88 1010.3
20260902065912 57 91 2.0 3.0 0.00 0.00 0.00 88 1010.7
20260902065408 57 134 2.0 3.0 0.00 0.00 0.00 88 1010.3
20260902064903 57 192 2.0 4.0 0.00 0.00 0.00 88 1010.7
20260902064359 57 114 2.0 3.0 0.00 0.00 0.00 88 1010.7
20260902063854 57 168 2.0 6.0 0.00 0.00 0.00 88 1010.7
20260902063348 57 175 6.0 7.0 0.00 0.00 0.00 88 1010.7
20260902062842 57 152 3.0 8.0 0.00 0.00 0.00 87 1010.7
20260902062336 57 120 4.0 4.0 0.00 0.00 0.00 87 1010.7
20260902061831 57 152 2.0 4.0 0.00 0.00 0.00 87 1010.7
20260902061326 57 161 4.0 6.0 0.00 0.00 0.00 87 1010.7
20260902060823 57 99 2.0 3.0 0.00 0.00 0.00 87 1010.7
20260902060318 57 148 1.0 2.0 0.00 0.00 0.00 86 1011.0
20260902055813 58 160 2.0 2.0 0.00 0.00 0.00 85 1010.7
20260902055309 58 168 1.0 2.0 0.00 0.00 0.00 85 1010.7
20260902054804 58 156 2.0 2.0 0.00 0.00 0.00 84 1011.0
20260902054300 59 117 1.0 4.0 0.00 0.00 0.00 84 1011.0
20260902053755 59 124 0.0 2.0 0.00 0.00 0.00 83 1011.0
20260902053254 59 172 3.0 3.0 0.00 0.00 0.00 82 1011.0
20260902052748 60 102 2.0 2.0 0.00 0.00 0.00 82 1011.3
20260902052243 60 156 2.0 3.0 0.00 0.00 0.00 82 1011.3
20260902051738 60 114 1.0 3.0 0.00 0.00 0.00 82 1011.3
20260902051232 59 159 1.0 1.0 0.00 0.00 0.00 83 1011.3
20260902050727 59 159 0.0 1.0 0.00 0.00 0.00 83 1011.3
20260902050223 59 189 0.0 2.0 0.00 0.00 0.00 84 1011.3
20260902045723 59 191 0.0 0.0 0.00 0.00 0.00 84 1011.3
20260902045219 59 191 0.0 1.0 0.00 0.00 0.00 84 1011.3
20260902044714 59 191 0.0 0.0 0.00 0.00 0.00 83 1011.3
20260902044209 59 191 0.0 0.0 0.00 0.00 0.00 83 1011.3
20260902043704 59 191 0.0 0.0 0.00 0.00 0.00 83 1011.3
20260902043200 59 191 0.0 1.0 0.00 0.00 0.00 82 1011.3
20260902042659 59 191 0.0 0.0 0.00 0.00 0.00 82 1011.3
20260902042154 59 191 0.0 0.0 0.00 0.00 0.00 81 1011.3
20260902041654 60 191 0.0 1.0 0.00 0.00 0.00 81 1011.3
20260902041148 60 191 0.0 0.0 0.00 0.00 0.00 80 1011.3
20260902040642 59 191 0.0 1.0 0.00 0.00 0.00 81 1011.3
20260902040138 59 198 0.0 0.0 0.00 0.00 0.00 82 1011.3
20260902035636 59 198 0.0 0.0 0.00 0.00 0.00 82 1011.3
20260902035132 59 198 0.0 0.0 0.00 0.00 0.00 81 1011.3
20260902034631 59 198 0.0 0.0 0.00 0.00 0.00 81 1011.3
20260902034130 60 198 0.0 0.0 0.00 0.00 0.00 80 1011.3
20260902033630 60 198 0.0 0.0 0.00 0.00 0.00 80 1011.3
20260902033125 60 198 0.0 0.0 0.00 0.00 0.00 80 1011.3
20260902032623 61 198 0.0 0.0 0.00 0.00 0.00 79 1011.3
20260902032118 61 198 0.0 0.0 0.00 0.00 0.00 78 1011.3
20260902031613 61 198 0.0 0.0 0.00 0.00 0.00 78 1011.3
20260902031110 62 198 0.0 0.0 0.00 0.00 0.00 77 1011.3
20260902030609 62 198 0.0 0.0 0.00 0.00 0.00 77 1011.3
20260902030104 62 198 0.0 0.0 0.00 0.00 0.00 77 1011.3
20260902025603 62 198 0.0 0.0 0.00 0.00 0.00 77 1011.3
20260902025059 62 198 0.0 1.0 0.00 0.00 0.00 76 1011.3
20260902024554 62 198 0.0 0.0 0.00 0.00 0.00 76 1011.3
20260902024054 62 198 0.0 0.0 0.00 0.00 0.00 76 1011.3
20260902023550 62 198 0.0 0.0 0.00 0.00 0.00 76 1011.3
20260902023045 62 198 0.0 0.0 0.00 0.00 0.00 76 1011.3
20260902022544 62 198 0.0 0.0 0.00 0.00 0.00 75 1011.3
20260902022041 63 198 0.0 0.0 0.00 0.00 0.00 75 1011.3
20260902021536 63 198 0.0 0.0 0.00 0.00 0.00 75 1011.3
20260902021031 63 198 0.0 0.0 0.00 0.00 0.00 74 1011.3
20260902020526 63 198 0.0 0.0 0.00 0.00 0.00 74 1011.3
20260902020022 63 198 0.0 0.0 0.00 0.00 0.00 74 1011.8
20260902015518 63 198 0.0 1.0 0.00 0.00 0.00 75 1011.3
20260902015013 63 198 0.0 0.0 0.00 0.00 0.00 75 1011.8
20260902014510 63 200 0.0 1.0 0.00 0.00 0.00 75 1011.8
20260902014004 63 172 1.0 1.0 0.00 0.00 0.00 75 1011.8
20260902013458 63 94 1.0 1.0 0.00 0.00 0.00 75 1011.3
20260902012953 63 312 1.0 2.0 0.00 0.00 0.00 75 1011.8
20260902012444 63 285 2.0 2.0 0.00 0.00 0.00 75 1011.8
20260902011939 63 95 0.0 0.0 0.00 0.00 0.00 74 1011.3
20260902011435 63 107 0.0 1.0 0.00 0.00 0.00 74 1011.8
20260902010934 63 106 0.0 1.0 0.00 0.00 0.00 74 1011.8
20260902010429 63 289 1.0 1.0 0.00 0.00 0.00 74 1011.3
20260902005928 63 107 0.0 1.0 0.00 0.00 0.00 74 1011.3
20260902005427 63 105 0.0 1.0 0.00 0.00 0.00 74 1011.8
20260902004923 63 132 1.0 1.0 0.00 0.00 0.00 74 1011.8
20260902004422 63 65 2.0 3.0 0.00 0.00 0.00 74 1011.3
20260902003918 63 99 0.0 1.0 0.00 0.00 0.00 75 1011.8
20260902003413 63 102 0.0 2.0 0.00 0.00 0.00 75 1011.8
20260902002908 63 196 0.0 1.0 0.00 0.00 0.00 75 1011.8
20260902002403 63 90 1.0 1.0 0.00 0.00 0.00 75 1011.3
20260902001858 63 286 2.0 2.0 0.00 0.00 0.00 74 1011.8
20260902001353 63 99 0.0 0.0 0.00 0.00 0.00 75 1011.8
20260902000847 63 95 0.0 1.0 0.00 0.00 0.00 74 1011.8
20260902000344 63 73 0.0 1.0 0.00 0.00 0.00 74 1011.8
20260901235837 62 84 0.0 1.0 0.00 0.00 0.00 75 1011.8
20260901235336 62 65 1.0 1.0 0.00 0.00 0.00 75 1011.8
20260901234832 62 94 0.0 1.0 0.00 0.00 0.00 75 1011.8
20260901234326 62 110 0.0 1.0 0.00 0.00 0.00 75 1011.8
20260901233821 63 110 0.0 1.0 0.00 0.00 0.00 75 1011.8
20260901233317 63 288 1.0 1.0 0.00 0.00 0.00 75 1011.8
20260901232812 63 82 1.0 1.0 0.00 0.00 0.00 74 1011.8
20260901232301 63 115 0.0 3.0 0.00 0.00 0.00 75 1011.8
20260901231757 63 58 1.0 2.0 0.00 0.00 0.00 74 1011.8
20260901231248 64 104 0.0 4.0 0.00 0.00 0.00 74 1011.8
20260901230744 64 309 2.0 4.0 0.00 0.00 0.00 74 1011.3
20260901230243 64 103 0.0 2.0 0.00 0.00 0.00 74 1011.3
20260901225738 65 60 0.0 2.0 0.00 0.00 0.00 73 1011.3
20260901225233 64 110 0.0 1.0 0.00 0.00 0.00 74 1011.3
20260901224729 64 82 0.0 2.0 0.00 0.00 0.00 73 1011.3
20260901224225 64 155 1.0 2.0 0.00 0.00 0.00 73 1011.8
20260901223721 64 95 0.0 1.0 0.00 0.00 0.00 74 1011.8
20260901223215 64 87 1.0 1.0 0.00 0.00 0.00 74 1011.3
20260901222711 63 118 0.0 2.0 0.00 0.00 0.00 75 1011.3
20260901222208 63 315 1.0 4.0 0.00 0.00 0.00 75 1011.8
20260901221703 62 109 0.0 2.0 0.00 0.00 0.00 76 1011.8